�������l�o���
Date,Time,MP-1(��Sv/h),MP-2(��Sv/h),MP-3(��Sv/h),MP-4(��Sv/h),MP-5(��Sv/h),MP-6(��Sv/h),MP-7(��Sv/h),����,����(m/s),���J
2023/04/14,00:00,0.154,0.138,0.218,0.215,0.214,0.123,0.079,��쐼,7.8,��
2023/04/14,00:10,0.154,0.138,0.220,0.217,0.215,0.122,0.078,��쐼,8.2,��
2023/04/14,00:20,0.155,0.138,0.220,0.215,0.215,0.122,0.079,��쐼,8.3,��
2023/04/14,00:30,0.154,0.138,0.219,0.215,0.214,0.122,0.077,��쐼,7.4,��
2023/04/14,00:40,0.155,0.138,0.218,0.216,0.215,0.122,0.078,��쐼,7.7,��
2023/04/14,00:50,0.154,0.138,0.220,0.216,0.213,0.122,0.078,��쐼,6.7,��
2023/04/14,01:00,0.155,0.138,0.220,0.216,0.215,0.122,0.078,��쐼,5.9,��
2023/04/14,01:10,0.155,0.138,0.219,0.215,0.212,0.123,0.078,��쐼,5.0,��
2023/04/14,01:20,0.154,0.137,0.220,0.215,0.214,0.123,0.078,��쐼,5.5,��
2023/04/14,01:30,0.156,0.138,0.220,0.216,0.215,0.122,0.077,�쐼,5.4,��
2023/04/14,01:40,0.154,0.138,0.219,0.215,0.214,0.122,0.078,�쐼,4.6,��
2023/04/14,01:50,0.154,0.139,0.220,0.215,0.215,0.123,0.078,�쐼,5.4,��
2023/04/14,02:00,0.155,0.137,0.220,0.216,0.213,0.122,0.078,�쐼,5.8,��
2023/04/14,02:10,0.155,0.138,0.219,0.216,0.214,0.122,0.077,�쐼,7.0,��
2023/04/14,02:20,0.154,0.138,0.220,0.216,0.214,0.123,0.078,��쐼,5.6,��
2023/04/14,02:30,0.154,0.138,0.220,0.216,0.213,0.122,0.078,��쐼,5.6,��
2023/04/14,02:40,0.155,0.138,0.219,0.215,0.215,0.123,0.078,��쐼,5.0,��
2023/04/14,02:50,0.154,0.138,0.219,0.216,0.213,0.123,0.078,�쐼,5.0,��
2023/04/14,03:00,0.154,0.138,0.219,0.216,0.215,0.123,0.078,�쐼,4.5,��
2023/04/14,03:10,0.155,0.138,0.219,0.215,0.214,0.122,0.078,�쐼,4.6,��
2023/04/14,03:20,0.156,0.138,0.220,0.216,0.213,0.122,0.078,�쐼,5.4,��
2023/04/14,03:30,0.154,0.138,0.219,0.216,0.215,0.122,0.078,�쐼,5.5,��
2023/04/14,03:40,0.154,0.138,0.218,0.215,0.213,0.122,0.078,���쐼,4.7,��
2023/04/14,03:50,0.155,0.138,0.220,0.216,0.214,0.122,0.078,�쐼,4.8,��
2023/04/14,04:00,0.155,0.138,0.219,0.214,0.214,0.123,0.077,�쐼,5.3,��
2023/04/14,04:10,0.155,0.139,0.219,0.216,0.214,0.123,0.077,�쐼,4.3,��
2023/04/14,04:20,0.154,0.138,0.219,0.217,0.215,0.123,0.078,�쐼,4.0,��
2023/04/14,04:30,-,-,-,-,-,-,-,-,-,-
2023/04/14,04:40,0.155,0.139,0.219,0.216,0.214,0.122,0.077,��쐼,3.7,��
2023/04/14,04:50,0.154,0.138,0.219,0.215,0.214,0.123,0.079,�쐼,3.4,��
2023/04/14,05:00,0.154,0.139,0.220,0.215,0.214,0.122,0.077,�쐼,3.6,��
2023/04/14,05:10,0.155,0.137,0.221,0.216,0.215,0.123,0.078,��쐼,2.9,��
2023/04/14,05:20,0.155,0.138,0.220,0.216,0.215,0.122,0.078,��쐼,3.0,��
2023/04/14,05:30,0.155,0.138,0.220,0.216,0.213,0.123,0.078,��,3.5,��
2023/04/14,05:40,0.155,0.138,0.219,0.216,0.214,0.123,0.078,��쐼,3.4,��
2023/04/14,05:50,0.154,0.137,0.220,0.216,0.213,0.122,0.078,��쐼,3.0,��
2023/04/14,06:00,0.154,0.138,0.220,0.216,0.215,0.122,0.078,��쐼,5.0,��
2023/04/14,06:10,0.154,0.138,0.218,0.217,0.213,0.122,0.078,��쐼,5.0,��
2023/04/14,06:20,0.155,0.137,0.219,0.215,0.213,0.120,0.077,��쐼,4.9,��
2023/04/14,06:30,0.154,0.138,0.220,0.215,0.214,0.122,0.078,��쐼,5.2,��
2023/04/14,06:40,0.154,0.138,0.220,0.216,0.213,0.122,0.078,��쐼,5.1,��
2023/04/14,06:50,0.155,0.138,0.219,0.215,0.216,0.122,0.078,��쐼,4.9,��
2023/04/14,07:00,0.153,0.138,0.219,0.216,0.213,0.121,0.077,��쐼,3.8,��
2023/04/14,07:10,0.155,0.137,0.219,0.215,0.214,0.123,0.079,��쐼,4.9,��
2023/04/14,07:20,0.153,0.138,0.218,0.216,0.213,0.122,0.077,��쐼,4.2,��
2023/04/14,07:30,0.155,0.137,0.219,0.216,0.215,0.123,0.078,��쐼,3.8,��
2023/04/14,07:40,0.154,0.138,0.220,0.216,0.213,0.122,0.077,��,3.6,��
2023/04/14,07:50,0.155,0.137,0.219,0.215,0.214,0.122,0.077,��쐼,3.6,��
2023/04/14,08:00,0.154,0.138,0.219,0.216,0.214,0.122,0.078,��쐼,4.6,��
2023/04/14,08:10,0.155,0.138,0.220,0.214,0.215,0.123,0.077,��쐼,4.0,��
2023/04/14,08:20,0.154,0.138,0.218,0.215,0.212,0.122,0.077,��쐼,4.2,��
2023/04/14,08:30,0.155,0.137,0.216,0.215,0.215,0.122,0.077,��쐼,3.9,��
2023/04/14,08:40,0.155,0.137,0.219,0.213,0.212,0.121,0.077,��쐼,3.8,��
2023/04/14,08:50,0.153,0.138,0.219,0.216,0.212,0.122,0.077,��,4.9,��
2023/04/14,09:00,0.154,0.137,0.217,0.215,0.215,0.122,0.077,��쐼,7.5,��
2023/04/14,09:10,0.155,0.137,0.218,0.214,0.213,0.122,0.078,��,7.6,��
2023/04/14,09:20,0.154,0.138,0.220,0.215,0.211,0.122,0.077,��,5.3,��
2023/04/14,09:30,0.153,0.138,0.220,0.215,0.215,0.122,0.078,��,7.1,��
2023/04/14,09:40,0.154,0.137,0.218,0.213,0.213,0.122,0.078,��,6.5,��
2023/04/14,09:50,0.154,0.136,0.217,0.212,0.211,0.122,0.078,��쓌,6.9,��
2023/04/14,10:00,0.153,0.138,0.217,0.216,0.212,0.121,0.077,��쓌,7.9,��
2023/04/14,10:10,0.152,0.138,0.219,0.215,0.214,0.121,0.077,��쓌,10.0,��
2023/04/14,10:20,0.154,0.137,0.219,0.213,0.213,0.122,0.079,��쓌,8.9,��
2023/04/14,10:30,0.154,0.136,0.218,0.213,0.211,0.122,0.079,��쓌,9.2,��
2023/04/14,10:40,0.154,0.138,0.218,0.216,0.213,0.122,0.078,��쓌,10.0,��
2023/04/14,10:50,0.152,0.137,0.217,0.215,0.215,0.122,0.078,��쓌,10.6,��
2023/04/14,11:00,0.153,0.137,0.217,0.212,0.212,0.122,0.078,��쓌,11.5,��
2023/04/14,11:10,0.155,0.137,0.219,0.215,0.212,0.121,0.077,��쓌,11.7,��
2023/04/14,11:20,0.155,0.139,0.221,0.216,0.215,0.122,0.078,��,10.7,��
2023/04/14,11:30,0.154,0.138,0.219,0.213,0.214,0.122,0.078,��쓌,11.4,��
2023/04/14,11:40,0.153,0.137,0.217,0.213,0.213,0.122,0.078,��쓌,11.8,��
2023/04/14,11:50,0.153,0.137,0.217,0.215,0.211,0.122,0.077,��쓌,11.7,��
2023/04/14,12:00,0.155,0.138,0.218,0.215,0.216,0.122,0.077,��쓌,12.3,��
2023/04/14,12:10,0.155,0.137,0.221,0.214,0.213,0.122,0.078,��쓌,13.9,��
2023/04/14,12:20,0.154,0.136,0.220,0.216,0.213,0.122,0.078,��쓌,13.1,��
2023/04/14,12:30,0.154,0.138,0.219,0.215,0.210,0.122,0.077,��쓌,11.7,��
2023/04/14,12:40,0.152,0.138,0.218,0.214,0.213,0.122,0.078,��쓌,14.7,��
2023/04/14,12:50,0.152,0.138,0.218,0.214,0.214,0.122,0.078,��쓌,12.9,��
2023/04/14,13:00,0.155,0.137,0.220,0.218,0.213,0.122,0.078,��쓌,13.4,��
2023/04/14,13:10,0.155,0.138,0.220,0.215,0.211,0.122,0.077,��쓌,13.4,��
2023/04/14,13:20,0.154,0.138,0.217,0.214,0.215,0.122,0.078,��,13.1,��
2023/04/14,13:30,0.153,0.137,0.217,0.217,0.215,0.122,0.077,��쓌,11.7,��
2023/04/14,13:40,0.154,0.139,0.221,0.216,0.212,0.122,0.078,��쓌,12.6,��
2023/04/14,13:50,0.155,0.138,0.220,0.214,0.212,0.122,0.078,��,10.9,��
2023/04/14,14:00,0.154,0.137,0.218,0.215,0.214,0.122,0.078,��,10.1,��
2023/04/14,14:10,0.153,0.137,0.217,0.217,0.212,0.123,0.077,��,9.2,��
2023/04/14,14:20,0.153,0.138,0.217,0.216,0.213,0.122,0.078,��,8.2,��
2023/04/14,14:30,0.152,0.138,0.217,0.213,0.211,0.121,0.078,��,8.5,��
2023/04/14,14:40,0.152,0.137,0.220,0.215,0.210,0.121,0.078,��,8.8,��
2023/04/14,14:50,0.153,0.137,0.221,0.214,0.210,0.122,0.077,��,7.8,��
2023/04/14,15:00,0.154,0.137,0.219,0.216,0.211,0.123,0.078,��,8.6,��
2023/04/14,15:10,0.156,0.138,0.218,0.215,0.215,0.121,0.077,��,7.7,��
2023/04/14,15:20,0.154,0.138,0.216,0.214,0.215,0.121,0.078,��,7.8,��
2023/04/14,15:30,0.153,0.137,0.220,0.216,0.212,0.123,0.077,��쓌,7.8,��
2023/04/14,15:40,0.155,0.138,0.220,0.216,0.214,0.121,0.078,��쓌,7.6,��
2023/04/14,15:50,0.155,0.137,0.219,0.215,0.215,0.122,0.078,��쓌,8.2,��
2023/04/14,16:00,0.154,0.139,0.221,0.217,0.212,0.123,0.078,��쓌,7.6,��
2023/04/14,16:10,0.155,0.138,0.218,0.215,0.214,0.122,0.077,��,6.0,��
2023/04/14,16:20,0.154,0.138,0.220,0.216,0.215,0.122,0.079,��,5.0,��
2023/04/14,16:30,0.154,0.138,0.220,0.216,0.212,0.122,0.078,��,4.6,��
2023/04/14,16:40,0.155,0.138,0.220,0.215,0.215,0.122,0.078,��,5.5,��
2023/04/14,16:50,0.153,0.138,0.222,0.217,0.214,0.121,0.077,��,4.9,��
2023/04/14,17:00,0.156,0.138,0.219,0.215,0.212,0.121,0.079,��쐼,5.8,��
2023/04/14,17:10,0.154,0.138,0.220,0.216,0.215,0.122,0.078,��,4.1,��
2023/04/14,17:20,0.155,0.137,0.220,0.215,0.213,0.122,0.077,��,4.3,��
2023/04/14,17:30,0.154,0.138,0.219,0.216,0.214,0.122,0.077,��,4.6,��
2023/04/14,17:40,0.155,0.137,0.220,0.217,0.215,0.122,0.078,��,3.9,��
2023/04/14,17:50,0.155,0.138,0.220,0.216,0.212,0.121,0.077,��쐼,3.7,��
2023/04/14,18:00,0.153,0.138,0.219,0.216,0.215,0.122,0.078,��쐼,2.9,��
2023/04/14,18:10,0.154,0.138,0.220,0.216,0.213,0.122,0.077,��,3.7,��
2023/04/14,18:20,0.154,0.137,0.221,0.216,0.215,0.122,0.078,��쐼,4.5,��
2023/04/14,18:30,0.155,0.138,0.220,0.216,0.213,0.122,0.077,�쐼,2.4,��
2023/04/14,18:40,0.154,0.139,0.220,0.216,0.216,0.123,0.078,��,1.8,��
2023/04/14,18:50,0.156,0.138,0.219,0.216,0.214,0.122,0.078,���k��,3.0,��
2023/04/14,19:00,0.154,0.139,0.220,0.216,0.215,0.122,0.079,�k�k��,3.7,��
2023/04/14,19:10,0.156,0.138,0.220,0.218,0.214,0.122,0.077,�k��,5.6,��
2023/04/14,19:20,0.154,0.138,0.221,0.216,0.214,0.122,0.078,�k��,6.2,��
2023/04/14,19:30,0.156,0.137,0.220,0.217,0.214,0.122,0.078,�k�k��,6.5,��
2023/04/14,19:40,0.155,0.139,0.219,0.216,0.214,0.123,0.078,�k��,5.3,��
2023/04/14,19:50,0.155,0.138,0.220,0.217,0.214,0.122,0.079,�k��,5.0,��
2023/04/14,20:00,0.155,0.139,0.220,0.216,0.214,0.123,0.078,�k�k��,4.2,��
2023/04/14,20:10,0.155,0.138,0.221,0.218,0.215,0.122,0.078,�k�k��,4.0,��
2023/04/14,20:20,0.154,0.138,0.220,0.215,0.214,0.123,0.078,�k��,2.7,��
2023/04/14,20:30,0.154,0.138,0.219,0.218,0.215,0.122,0.079,�k��,4.3,��
2023/04/14,20:40,0.155,0.138,0.220,0.216,0.213,0.123,0.077,�k�k��,3.7,��
2023/04/14,20:50,0.155,0.139,0.221,0.217,0.214,0.122,0.078,�k�k��,3.3,��
2023/04/14,21:00,0.155,0.138,0.220,0.216,0.214,0.123,0.079,�k��,2.7,��
2023/04/14,21:10,0.155,0.139,0.220,0.217,0.215,0.122,0.079,�k��,2.1,��
2023/04/14,21:20,0.155,0.139,0.220,0.217,0.212,0.122,0.079,��,1.1,��
2023/04/14,21:30,0.155,0.139,0.220,0.216,0.215,0.122,0.079,-,CALM,��
2023/04/14,21:40,0.155,0.139,0.221,0.217,0.214,0.122,0.079,��,2.6,��
2023/04/14,21:50,0.155,0.139,0.221,0.217,0.216,0.123,0.079,��,1.4,��
2023/04/14,22:00,0.155,0.139,0.221,0.218,0.215,0.123,0.078,��,2.7,��
2023/04/14,22:10,0.155,0.139,0.221,0.217,0.215,0.124,0.078,��,3.4,��
2023/04/14,22:20,0.155,0.139,0.219,0.217,0.215,0.123,0.079,��,2.6,��
2023/04/14,22:30,0.157,0.139,0.221,0.217,0.214,0.123,0.079,��,2.6,��
2023/04/14,22:40,0.155,0.138,0.221,0.217,0.215,0.123,0.078,��쐼,2.3,��
2023/04/14,22:50,0.155,0.139,0.221,0.217,0.214,0.123,0.079,��쐼,3.1,��
2023/04/14,23:00,0.155,0.138,0.220,0.217,0.215,0.123,0.079,��쐼,3.2,��
2023/04/14,23:10,0.157,0.139,0.222,0.217,0.213,0.123,0.079,���쐼,1.6,��
2023/04/14,23:20,-,-,-,-,-,-,-,-,-,-
2023/04/14,23:30,0.155,0.139,0.221,0.217,0.213,0.122,0.078,���쐼,3.9,��
2023/04/14,23:40,0.155,0.139,0.220,0.216,0.215,0.123,0.079,���쐼,4.1,��
2023/04/14,23:50,0.155,0.138,0.221,0.216,0.213,0.123,0.078,���쐼,3.5,��
